sat.trackr.live / text

‹ back to catalog

TDRS 6

NORAD 22314 · 1993-003B

PAYLOAD ACTIVE UNKNOWN

§ Identity

Operator
Country
US
Launch date
1993-01-13
Launch site
AFETR
Launch vehicle
Mass (kg)
RCS (m²)
28.67

Purposes: comms

External: N2YO · Heavens-Above · Gunter

§ Orbital elements

Epoch: 2026-09-20T05:08:11.670144Z

Period
1,436.08 min
Inclination
14.1861°
Eccentricity
0.0009678
Mean motion
1.00273048 rev/d
Perigee alt
35,745.4 km
Apogee alt
35,827.0 km
Semi-major
42,164.4 km
B*
0.0000e+0
RAAN
356.3413°
Arg perigee
202.5339°
Mean anomaly
191.5222°
Rev number
12,336

§ Raw data

TDRS 61 22314U 93003B   26263.21402396 -.00000292  00000+0  00000+0 0  99952 22314  14.1861 356.3413 0009678 202.5339 191.5222  1.00273048123366

JSON: /api/v1/satellites/22314 · /tle

For live sub-satellite position, see the globe view (requires WebGL).

§ Visibility from observer

Set your observer location to see the next 7 days of passes ≥ 10°. The values pass through the URL so the page stays shareable.

No JS? Fill the form by hand. The geolocation button needs JavaScript.